Time,TemperatureF,DewpointF,PressureIn,WindDirection,WindDirectionDegrees,WindSpeedMPH,WindSpeedGustMPH,Humidity,HourlyPrecipIn,Conditions,Clouds,dailyrainin,SoftwareType,DateUTC
2013-09-19 00:01:00,55.0,53.0,30.19,SE,142,0.0,0.0,94,0.00,,,-99.99,,2013-09-19 04:01:00,
2013-09-19 00:25:00,55.0,53.0,30.18,SE,142,0.0,0.0,94,0.00,,,-99.99,,2013-09-19 04:25:00,
2013-09-19 00:54:00,55.0,54.0,30.18,SE,142,0.0,0.0,95,0.00,,,-99.99,,2013-09-19 04:54:00,
2013-09-19 01:03:00,55.0,54.0,30.18,SE,142,0.0,0.0,95,0.00,,,-99.99,,2013-09-19 05:03:00,
2013-09-19 01:13:00,55.0,54.0,30.18,SE,142,0.0,0.0,95,0.00,,,-99.99,,2013-09-19 05:13:00,
2013-09-19 01:23:00,55.0,54.0,30.18,SE,142,0.0,0.0,95,0.00,,,-99.99,,2013-09-19 05:23:00,
2013-09-19 01:52:00,55.0,54.0,30.17,SE,142,0.0,0.0,95,0.00,,,-99.99,,2013-09-19 05:52:00,
2013-09-19 02:02:00,55.0,54.0,30.17,SE,142,0.0,0.0,95,0.00,,,-99.99,,2013-09-19 06:02:00,
2013-09-19 02:22:00,56.0,55.0,30.17,SE,142,0.0,0.0,96,0.00,,,-99.99,,2013-09-19 06:22:00,
2013-09-19 02:32:00,56.0,55.0,30.17,SE,142,0.0,0.0,96,0.00,,,-99.99,,2013-09-19 06:32:00,
2013-09-19 02:52:00,55.0,54.0,30.16,SE,142,0.0,0.0,96,0.00,,,-99.99,,2013-09-19 06:52:00,
2013-09-19 03:12:00,56.0,55.0,30.16,SE,142,0.0,0.0,96,0.00,,,-99.99,,2013-09-19 07:12:00,
2013-09-19 03:22:00,56.0,55.0,30.16,SE,142,0.0,0.0,96,0.00,,,-99.99,,2013-09-19 07:22:00,
2013-09-19 03:52:00,56.0,55.0,30.16,SE,142,0.0,0.0,96,0.00,,,-99.99,,2013-09-19 07:52:00,
2013-09-19 04:12:00,56.0,55.0,30.16,SE,142,0.0,0.0,96,0.00,,,-99.99,,2013-09-19 08:12:00,
2013-09-19 04:22:00,56.0,55.0,30.16,SE,142,0.0,0.0,96,0.00,,,-99.99,,2013-09-19 08:22:00,
2013-09-19 04:33:00,56.0,55.0,30.16,SE,142,0.0,0.0,96,0.00,,,-99.99,,2013-09-19 08:33:00,
2013-09-19 05:03:00,56.0,55.0,30.15,South,188,0.0,0.0,97,0.00,,,-99.99,,2013-09-19 09:03:00,
2013-09-19 05:22:00,56.0,55.0,30.15,South,188,0.0,0.0,97,0.00,,,-99.99,,2013-09-19 09:22:00,
2013-09-19 05:33:00,56.0,55.0,30.15,South,188,0.0,0.0,97,0.00,,,-99.99,,2013-09-19 09:33:00,
2013-09-19 05:53:00,56.0,55.0,30.15,South,188,0.0,0.0,97,0.00,,,-99.99,,2013-09-19 09:53:00,
2013-09-19 06:52:00,56.0,55.0,30.15,South,188,0.0,0.0,97,0.00,,,-99.99,,2013-09-19 10:52:00,
2013-09-19 07:12:00,56.0,55.0,30.15,South,188,0.0,0.0,97,0.00,,,-99.99,,2013-09-19 11:12:00,
2013-09-19 07:22:00,56.0,55.0,30.15,South,188,0.0,0.0,97,0.00,,,-99.99,,2013-09-19 11:22:00,
2013-09-19 07:33:00,56.0,55.0,30.15,South,188,0.0,0.0,97,0.00,,,-99.99,,2013-09-19 11:33:00,
2013-09-19 07:53:00,57.0,56.0,30.16,South,188,0.0,0.0,97,0.00,,,-99.99,,2013-09-19 11:53:00,
2013-09-19 08:22:00,57.0,56.0,30.16,South,188,0.0,0.0,98,0.00,,,-99.99,,2013-09-19 12:22:00,
2013-09-19 08:32:00,57.0,56.0,30.16,South,188,0.0,0.0,98,0.00,,,-99.99,,2013-09-19 12:32:00,
2013-09-19 08:52:00,57.0,56.0,30.16,South,188,0.0,0.0,98,0.00,,,-99.99,,2013-09-19 12:52:00,
2013-09-19 09:22:00,57.0,56.0,30.16,South,188,0.0,0.0,98,0.00,,,-99.99,,2013-09-19 13:22:00,
2013-09-19 09:52:00,57.0,57.0,30.18,South,188,0.0,0.0,99,0.00,,,-99.99,,2013-09-19 13:52:00,
2013-09-19 10:02:00,57.0,57.0,30.18,South,188,0.0,0.0,99,0.00,,,-99.99,,2013-09-19 14:02:00,
2013-09-19 10:12:00,57.0,57.0,30.18,South,188,0.0,0.0,99,0.00,,,-99.99,,2013-09-19 14:12:00,
2013-09-19 11:54:00,61.0,61.0,30.18,SSE,162,3.0,7.0,100,0.00,,,-99.99,,2013-09-19 15:54:00,
2013-09-19 12:04:00,61.0,61.0,30.18,SSE,162,3.0,7.0,100,0.00,,,-99.99,,2013-09-19 16:04:00,
2013-09-19 12:24:00,62.0,62.0,30.17,SE,144,0.0,5.0,100,0.00,,,-99.99,,2013-09-19 16:24:00,
2013-09-19 12:53:00,62.0,62.0,30.17,SE,144,0.0,5.0,100,0.00,,,-99.99,,2013-09-19 16:53:00,
2013-09-19 13:12:00,64.0,63.0,30.16,SSW,205,1.0,6.0,98,0.00,,,-99.99,,2013-09-19 17:12:00,
2013-09-19 13:23:00,64.0,63.0,30.16,SSW,205,1.0,6.0,98,0.00,,,-99.99,,2013-09-19 17:23:00,
2013-09-19 13:53:00,67.0,65.0,30.14,South,176,3.0,8.0,93,0.00,,,-99.99,,2013-09-19 17:53:00,
2013-09-19 14:12:00,67.0,65.0,30.14,SE,130,0.0,5.0,93,0.00,,,-99.99,,2013-09-19 18:12:00,
2013-09-19 14:22:00,67.0,65.0,30.14,SSE,168,0.0,5.0,93,0.00,,,-99.99,,2013-09-19 18:22:00,
2013-09-19 14:32:00,67.0,65.0,30.14,SSE,168,0.0,5.0,93,0.00,,,-99.99,,2013-09-19 18:32:00,
2013-09-19 14:52:00,67.0,65.0,30.14,SSE,168,0.0,5.0,93,0.00,,,-99.99,,2013-09-19 18:52:00,
2013-09-19 15:02:00,67.0,65.0,30.14,SSE,168,0.0,5.0,93,0.00,,,-99.99,,2013-09-19 19:02:00,
2013-09-19 16:12:00,71.0,66.0,30.10,South,191,1.0,7.0,84,0.00,,,-99.99,,2013-09-19 20:12:00,
2013-09-19 16:22:00,71.0,66.0,30.10,South,191,1.0,7.0,84,0.00,,,-99.99,,2013-09-19 20:22:00,
2013-09-19 16:32:00,71.0,66.0,30.10,South,191,1.0,7.0,84,0.00,,,-99.99,,2013-09-19 20:32:00,
2013-09-19 17:55:00,71.0,66.0,30.10,SE,143,0.0,2.0,85,0.00,,,-99.99,,2013-09-19 21:55:00,
2013-09-19 18:24:00,71.0,66.0,30.10,ESE,123,1.0,7.0,85,0.00,,,-99.99,,2013-09-19 22:24:00,
2013-09-19 18:33:00,71.0,66.0,30.10,ESE,123,1.0,7.0,85,0.00,,,-99.99,,2013-09-19 22:33:00,
2013-09-19 18:53:00,69.0,65.0,30.11,East,85,0.0,5.0,88,0.00,,,-99.99,,2013-09-19 22:53:00,
2013-09-19 19:12:00,68.0,65.0,30.11,East,87,0.0,0.0,89,0.00,,,-99.99,,2013-09-19 23:12:00,
2013-09-19 19:22:00,68.0,65.0,30.11,East,87,0.0,0.0,89,0.00,,,-99.99,,2013-09-19 23:22:00,
2013-09-19 19:43:00,67.0,64.0,30.11,SSE,149,0.0,0.0,91,0.00,,,-99.99,,2013-09-19 23:43:00,
2013-09-19 19:53:00,67.0,64.0,30.11,SSE,149,0.0,0.0,91,0.00,,,-99.99,,2013-09-19 23:53:00,
2013-09-19 20:22:00,66.0,64.0,30.11,ESE,123,0.0,0.0,92,0.00,,,-99.99,,2013-09-20 00:22:00,
2013-09-19 20:52:00,65.0,63.0,30.11,SE,125,0.0,0.0,93,0.00,,,-99.99,,2013-09-20 00:52:00,
2013-09-19 21:02:00,65.0,63.0,30.11,SE,125,0.0,0.0,93,0.00,,,-99.99,,2013-09-20 01:02:00,
2013-09-19 21:12:00,65.0,63.0,30.11,SE,125,0.0,0.0,93,0.00,,,-99.99,,2013-09-20 01:12:00,
2013-09-19 21:22:00,65.0,63.0,30.11,SE,125,0.0,0.0,93,0.00,,,-99.99,,2013-09-20 01:22:00,
2013-09-19 21:52:00,64.0,62.0,30.11,South,172,0.0,0.0,94,0.00,,,-99.99,,2013-09-20 01:52:00,
2013-09-19 22:03:00,64.0,62.0,30.11,South,172,0.0,0.0,94,0.00,,,-99.99,,2013-09-20 02:03:00,
2013-09-19 22:12:00,64.0,62.0,30.11,South,172,0.0,0.0,94,0.00,,,-99.99,,2013-09-20 02:12:00,
2013-09-19 22:53:00,62.0,61.0,30.09,South,172,0.0,0.0,95,0.00,,,-99.99,,2013-09-20 02:53:00,
2013-09-19 23:23:00,62.0,61.0,30.09,South,172,0.0,0.0,95,0.00,,,-99.99,,2013-09-20 03:23:00,
2013-09-19 23:34:00,62.0,61.0,30.09,South,172,0.0,0.0,95,0.00,,,-99.99,,2013-09-20 03:34:00,
2013-09-19 23:56:00,61.0,60.0,30.09,South,172,0.0,0.0,96,0.00,,,-99.99,,2013-09-20 03:56:00,